This is the latest recevied weather packets stored in our database for station/object BM2MWA-13. If no packets are shown the sender has not sent any weather packets the latest 10 day(s).
| Time | Temp. | Humidity | Pressure | Rain* | Wind** | Luminosity | Snow |
|---|---|---|---|---|---|---|---|
| 1787607423 | 27.22° C | 85% | 1001.3 hPa | 0 mm | - | - | - |
| 1787606823 | 27.22° C | 84% | 1001.2 hPa | 0 mm | - | - | - |
| 1787606223 | 27.22° C | 84% | 1000.9 hPa | 0 mm | - | - | - |
| 1787605625 | 27.22° C | 84% | 1000.8 hPa | 0 mm | - | - | - |
| 1787605023 | 27.22° C | 85% | 1000.9 hPa | 0 mm | - | - | - |
| 1787604424 | 26.67° C | 85% | 1000.8 hPa | 0 mm | - | - | - |
| 1787603824 | 27.22° C | 85% | 1000.9 hPa | 0 mm | - | - | - |
| 1787603223 | 26.67° C | 90% | 1000.8 hPa | 0 mm | - | - | - |
| 1787602624 | 26.11° C | 92% | 1000.9 hPa | 0 mm | - | - | - |
| 1787602023 | 26.11° C | 91% | 1000.8 hPa | 0 mm | - | - | - |
| 1787601423 | 26.11° C | 91% | 1000.9 hPa | 0 mm | - | - | - |
| 1787600823 | 26.67° C | 88% | 1000.9 hPa | 0 mm | - | - | - |
| 1787600224 | 26.67° C | 87% | 1000.7 hPa | 0 mm | - | - | - |
| 1787599624 | 26.67° C | 86% | 1000.8 hPa | 0 mm | - | - | - |
| 1787599023 | 26.67° C | 87% | 1000.9 hPa | 0 mm | - | - | - |
| 1787598423 | 26.67° C | 91% | 1000.8 hPa | 0 mm | - | - | - |
| 1787597824 | 26.67° C | 89% | 1000.8 hPa | 0 mm | - | - | - |
| 1787597223 | 26.11° C | 93% | 1000.9 hPa | 0 mm | - | - | - |
| 1787596624 | 26.11° C | 94% | 1000.9 hPa | 0 mm | - | - | - |
| 1787596025 | 26.11° C | 95% | 1000.7 hPa | 0 mm | - | - | - |
| 1787595423 | 26.11° C | 95% | 1000.7 hPa | 0 mm | - | - | - |
| 1787594824 | 26.11° C | 94% | 1000.7 hPa | 0 mm | - | - | - |
| 1787594224 | 26.67° C | 89% | 1000.9 hPa | 0 mm | - | - | - |
| 1787593624 | 26.11° C | 93% | 1001 hPa | 0 mm | - | - | - |
| 1787593024 | 26.67° C | 92% | 1001 hPa | 0 mm | - | - | - |
* Rain latest hour (hover to see other rain measurements)
** Current wind speed in m/s (hover to see current wind gust speed)